Rome, GA

11:22 PM EST on February 24, 2018 (GMT -0500)
Russell

Weather History for KRMG - May, 2013

Change the Weather History Date:

Sunday, May 19, 2013

  Actual Average Record
Temperature  
Mean Temperature 66 °F 69 °F  
Max Temperature 72 °F 82 °F 91 °F (2017)
Min Temperature 60 °F 57 °F 43 °F (2007)
Cooling Degree Days 1 5  
Month to date cooling degree days 32 58  
Year to date cooling degree days 56 91  
Growing Degree Days 16 (Base 50)    
Moisture  
Dew Point 66 °F    
Average Humidity 92    
Maximum Humidity 100    
Minimum Humidity 84    
Precipitation  
Precipitation 2.48 in 0.13 in 2.48 in (2013)
Month to date precipitation 7.08 2.73  
Year to date precipitation 14.80 21.42  
Sea Level Pressure  
Sea Level Pressure 30.05 in    
Wind  
Wind Speed 4 mph (East)    
Max Wind Speed 31 mph    
Max Gust Speed 39 mph    
Visibility 7 miles    
Events Fog , Rain , Thunderstorm    
T = Trace of Precipitation, MM = Missing Value Source: NWS Daily Summary

Daily Weather History Graph

Daily Weather History Graph

Search for Another Location

Airport or City:

Trip Planner

Search our weather history database for the weather conditions in past years. The results will help you decide how hot, cold, wet, or windy it might be!

Date:

Astronomy

May. 19, 2013 Rise Set
Actual Time 6:35 AM EDT 8:39 PM EDT
Civil Twilight 6:07 AM EDT 9:07 PM EDT
Nautical Twilight 5:33 AM EDT 9:41 PM EDT
Astronomical Twilight 4:56 AM EDT 10:18 PM EDT
Moon 2:57 PM EDT (5/19) 2:42 AM EDT (5/19)
Length of Visible Light 14h 59m
Length of Day
14h 03m
Waxing Gibbous, 65% of the Moon is Illuminated
May 19
Waxing Gibbous
May 25
Full
May 31
Last Quarter
Jun 8
New
Jun 16
First Quarter

Hourly Weather History & Observations

Time (EDT) Temp. Dew Point Humidity Pressure Visibility Wind Dir Wind Speed Gust Speed Precip Events Conditions
12:21 AM 69.8 °F 68.0 °F 94% 30.03 in 10.0 mi ESE 3.5 mph - N/A   Overcast
12:53 AM 70.0 °F 68.0 °F 93% 30.01 in 10.0 mi South 3.5 mph - N/A   Overcast
1:53 AM 70.0 °F 69.1 °F 97% 30.01 in 9.0 mi Calm Calm - N/A   Overcast
2:34 AM 69.8 °F 69.8 °F 100% 30.02 in 8.0 mi Calm Calm - N/A   Overcast
2:53 AM 70.0 °F 69.1 °F 97% 29.99 in 8.0 mi Calm Calm - N/A   Overcast
3:35 AM 69.8 °F 69.8 °F 100% 30.01 in 7.0 mi Calm Calm - 0.00 in   Overcast
3:46 AM 69.8 °F 69.8 °F 100% 30.01 in 6.0 mi Calm Calm - 0.00 in   Overcast
3:53 AM 70.0 °F 69.1 °F 97% 29.99 in 6.0 mi Calm Calm - 0.00 in   Overcast
4:53 AM 70.0 °F 69.1 °F 97% 29.99 in 6.0 mi Calm Calm - N/A   Overcast
5:53 AM 69.1 °F 69.1 °F 100% 29.98 in 5.0 mi Calm Calm - N/A   Overcast
6:20 AM 69.8 °F 69.8 °F 100% 30.02 in 4.0 mi Calm Calm - N/A   Overcast
6:46 AM 69.8 °F 69.8 °F 100% 30.04 in 5.0 mi Calm Calm - N/A   Overcast
6:53 AM 70.0 °F 69.1 °F 97% 30.01 in 5.0 mi Calm Calm - N/A   Overcast
7:53 AM 69.8 °F 69.8 °F 100% 30.04 in 7.0 mi SSE 5.8 mph - N/A   Overcast
8:33 AM 69.8 °F 69.8 °F 100% 30.05 in 7.0 mi South 4.6 mph - N/A Thunderstorm Overcast
8:53 AM 70.0 °F 69.1 °F 97% 30.02 in 6.0 mi Calm Calm - N/A Thunderstorm Overcast
9:07 AM 69.8 °F 69.8 °F 100% 30.05 in 6.0 mi ESE 5.8 mph - N/A Thunderstorm Overcast
9:34 AM 69.8 °F 69.8 °F 100% 30.05 in 1.8 mi Calm Calm - 0.00 in Rain , Thunderstorm Light Rain
9:53 AM 70.0 °F 69.1 °F 97% 30.03 in 1.0 mi SE 9.2 mph - 0.01 in Rain , Thunderstorm Light Thunderstorms and Rain
10:07 AM 69.8 °F 66.2 °F 88% 30.08 in 2.0 mi East 8.1 mph - 0.01 in Rain , Thunderstorm Light Thunderstorms and Rain
10:11 AM 69.8 °F 66.2 °F 88% 30.11 in 3.0 mi NE 12.7 mph - 0.02 in Rain , Thunderstorm Thunderstorms and Rain
10:13 AM 68.0 °F 66.2 °F 94% 30.11 in 1.8 mi North 19.6 mph 28.8 mph 0.03 in Rain , Thunderstorm Thunderstorms and Rain
10:20 AM 62.6 °F 62.6 °F 100% 30.11 in 0.2 mi ENE 31.1 mph 39.1 mph 0.30 in Fog , Rain , Thunderstorm Heavy Thunderstorms and Rain
10:30 AM 60.8 °F 60.8 °F 100% 30.07 in 0.2 mi East 20.7 mph 35.7 mph N/A Fog , Rain , Thunderstorm Heavy Thunderstorms and Rain
10:35 AM 62.6 °F 60.8 °F 94% 30.05 in 0.5 mi East 15.0 mph 25.3 mph N/A Fog , Rain , Thunderstorm Heavy Thunderstorms and Rain
10:42 AM 62.6 °F 60.8 °F 94% 30.09 in 1.0 mi Variable 3.5 mph - 1.55 in Rain , Thunderstorm Heavy Thunderstorms and Rain
10:53 AM 62.1 °F 62.1 °F 100% 30.07 in 0.5 mi WSW 5.8 mph - 1.70 in Fog , Rain , Thunderstorm Heavy Thunderstorms and Rain
11:15 AM 62.6 °F 62.6 °F 100% 30.11 in 1.5 mi Calm Calm - 0.60 in Rain , Thunderstorm Thunderstorms and Rain
11:17 AM 62.6 °F 62.6 °F 100% 30.11 in 2.0 mi Calm Calm - 0.61 in Rain , Thunderstorm Thunderstorms and Rain
11:35 AM 62.6 °F 62.6 °F 100% 30.07 in 5.0 mi Variable 3.5 mph - 0.68 in Rain , Thunderstorm Light Thunderstorms and Rain
11:53 AM 63.0 °F 63.0 °F 100% 30.07 in 4.0 mi WSW 5.8 mph - 0.70 in Rain , Thunderstorm Rain
12:19 PM 64.4 °F 62.6 °F 94% 30.08 in 10.0 mi SSW 4.6 mph - 0.02 in Rain , Thunderstorm Light Thunderstorms and Rain
12:53 PM 64.9 °F 64.0 °F 97% 30.08 in 10.0 mi North 6.9 mph - 0.02 in Thunderstorm Overcast
1:02 PM 64.4 °F 64.4 °F 100% 30.09 in 10.0 mi East 6.9 mph - N/A Thunderstorm Overcast
1:27 PM 66.2 °F 64.4 °F 94% 30.08 in 10.0 mi SSE 3.5 mph - N/A   Overcast
1:53 PM 68.0 °F 64.9 °F 90% 30.05 in 10.0 mi South 3.5 mph - N/A   Overcast
2:53 PM 71.6 °F 66.2 °F 83% 30.08 in 10.0 mi East 3.5 mph - N/A   Mostly Cloudy
3:17 PM 69.8 °F 64.4 °F 83% 30.10 in 10.0 mi NE 12.7 mph - N/A Thunderstorm Overcast
3:38 PM 69.8 °F 64.4 °F 83% 30.08 in 10.0 mi East 8.1 mph - N/A Thunderstorm Overcast
3:53 PM 69.8 °F 66.2 °F 88% 30.09 in 10.0 mi East 8.1 mph - N/A   Overcast
4:24 PM 69.8 °F 64.4 °F 83% 30.10 in 10.0 mi NE 13.8 mph 20.7 mph N/A Thunderstorm Thunderstorm
4:53 PM 68.0 °F 64.9 °F 90% 30.08 in 10.0 mi East 3.5 mph - N/A Thunderstorm Thunderstorm
5:53 PM 66.9 °F 64.9 °F 93% 30.07 in 10.0 mi WNW 3.5 mph - 0.02 in Rain , Thunderstorm Light Rain
6:20 PM 66.2 °F 64.4 °F 94% 30.08 in 10.0 mi Calm Calm - 0.00 in   Overcast
6:53 PM 66.9 °F 64.0 °F 90% 30.05 in 10.0 mi Calm Calm - 0.00 in Rain Light Rain
7:53 PM 64.9 °F 64.0 °F 97% 30.01 in 10.0 mi WSW 6.9 mph - 0.02 in Rain Light Rain
8:53 PM 64.9 °F 63.0 °F 93% 29.96 in 10.0 mi WSW 6.9 mph - 0.01 in   Scattered Clouds
9:53 PM 64.9 °F 63.0 °F 93% 29.98 in 10.0 mi East 9.2 mph - N/A   Clear
10:39 PM 64.4 °F 62.6 °F 94% 30.05 in 10.0 mi North 5.8 mph - N/A   Partly Cloudy
10:53 PM 64.0 °F 63.0 °F 96% 30.04 in 10.0 mi NNE 4.6 mph - N/A   Clear
11:53 PM 60.8 °F 60.8 °F 100% 30.05 in 5.0 mi WNW 3.5 mph - N/A   Clear